STARLINK-6291, 56547

Orbit data source: Space-Track

STARLINK-6291, 56547 is a payload satellite owned by SpaceX/Seattle (US) in LEO that was launched on Sun, 14 May 2023 UTC via an FALCON 9 launch vehicle from the Air Force Eastern Test Range (AFETR). Payload-class satellites include a variety of spacecraft equipped with specific instruments for various scientific and technological missions. These include communications satellites like Starlink; space stations such as the ISS; scientific satellites like the Hubble; Earth observation satellites from companies like Planet Labs, Umbra, and HawkEye 360; GPS; miniature CubeSats for education and research; and military/defense satellites.

Loading next visibility...
Identifier
56547, 2023-065AW
Orbit
LEO
Country
Flag of USUS
Related business
Manufacturer
SpaceX/Seattle
Mission
Operational Commercial Communications
Bus & Motor
STARLINK, Unknown motor
Mass
305 kg wet, ~290 kg dry
Launch date (UTC)
2023-05-14 (3 years ago)
Launch vehicle
FALCON 9
Launch site
Air Force Eastern Test Range (AFETR)
Object type
Payload
Rocket body
Debris
Shape & HBR
Box + 1 Pan, 10.1 m
Radar Cross Section
11.087 m², Large (>1 m²)

Expand to show TLE details & history
Last TLE update: 3 days ago

TLE from 3 days ago
0 STARLINK-6291
1 56547U 23065AW  26170.89230232 -.00000088  00000-0  63291-5 0  9991
2 56547  43.0028   6.3163 0001255 269.7579  90.3128 15.27575975172100
Epoch: 2026-06-19T21:24Z
TLE epoch observation values (Epoch: 2026-06-19T21:24:54.920Z)
Latitude
-0.00008°
Longitude
136.97263°
Altitude
482.842 km
Speed
7.626 km/s
True Right ascension
00h 25m 15s
True Declination
0° 00' 00"
Sunlit
Object was in daylight at epoch
Visualization orbit readout
Latitude
Unknown
Longitude
Unknown
Altitude
Unknown
Speed
Unknown
Apparent Right ascension
Unknown
Apparent Declination
Unknown
Sunlit
N/A
Visualization observer readout
Local Sidereal Time
21:24:22
Azimuth
Unknown
Elevation
Unknown
Doppler factor
Unknown
Orbital elements
Apogee altitude
485.867 km
Perigee altitude
484.145 km
Semi-major axis
6,863.143 km
Eccentricity
0.00013
Inclination
43.0028°
RAAN
6.3163°
Arg. of periapsis
269.7579°
True anomaly
90.32718°
Mean anomaly
90.3128°
Eccentric anomaly
90.31999°
Mean motion
3.81732 °/min
Orbital period
94.31 mins
BSTAR
0.0000063291
Loading maneuver chart data...
Computing Atmospheric mass density...
Loading historical data...
Loading historical data...
Loading historical data...
Loading historical data...
Loading historical data...
Loading historical data...
Loading historical data...

Documentation

Showing up to 5 results
|